Location: Newark
(47.4333°N, 19.2500°E)
Time: 03:00:16
(UTC+00:00)

X-37B - Pass Details

Date: 12 March 2021
Orbit: 380 x 394 km, 45.0° (Epoch: 07 April)

Event Time Altitude Azimuth Distance (km) Brightness Sun altitude
Rises 18:18:46 0° 228° (SW) 2,261 4.9 -16.7°
Reaches altitude 10° 18:21:02 10° 214° (SW) 1,412 3.7 -17.0°
Enters shadow 18:23:06 23° 177° (S) 870 2.1 -17.4°
